TimeEST,TemperatureF,Dew PointF,Humidity,Sea Level PressureIn,VisibilityMPH,Wind Direction,Wind SpeedMPH,Gust SpeedMPH,PrecipitationIn,Events,Conditions,WindDirDegrees,DateUTC
12:15 AM,24.4,22.8,94,30.10,7.0,SW,4.6,-,N/A,,Clear,230,2013-01-26 05:15:00
12:35 AM,24.4,22.8,94,30.09,7.0,SW,4.6,-,N/A,,Scattered Clouds,230,2013-01-26 05:35:00
12:55 AM,24.4,22.8,94,30.08,7.0,SW,5.8,-,N/A,,Scattered Clouds,230,2013-01-26 05:55:00
1:15 AM,24.4,22.8,94,30.09,7.0,SW,4.6,-,N/A,,Clear,230,2013-01-26 06:15:00
1:35 AM,24.1,22.6,94,30.09,7.0,SW,3.5,-,N/A,,Scattered Clouds,220,2013-01-26 06:35:00
1:55 AM,24.4,22.8,94,30.08,7.0,SW,3.5,-,N/A,,Mostly Cloudy,220,2013-01-26 06:55:00
2:15 AM,24.3,22.8,94,30.08,5.0,SW,4.6,-,N/A,,Scattered Clouds,220,2013-01-26 07:15:00
2:35 AM,23.9,22.6,95,30.08,5.0,SW,3.5,-,N/A,,Clear,230,2013-01-26 07:35:00
2:55 AM,23.9,22.5,94,30.08,5.0,SW,4.6,-,N/A,,Clear,220,2013-01-26 07:55:00
3:15 AM,23.7,22.3,94,30.08,5.0,SW,4.6,-,N/A,,Clear,230,2013-01-26 08:15:00
3:35 AM,23.7,22.1,94,30.08,5.0,SW,5.8,-,N/A,,Clear,230,2013-01-26 08:35:00
3:55 AM,23.5,22.1,94,30.08,5.0,SW,5.8,-,N/A,,Clear,230,2013-01-26 08:55:00
4:15 AM,23.4,21.9,94,30.08,5.0,SW,3.5,-,N/A,,Clear,220,2013-01-26 09:15:00
4:35 AM,23.2,21.7,94,30.08,5.0,SW,4.6,-,N/A,,Clear,230,2013-01-26 09:35:00
4:55 AM,22.6,21.2,94,30.08,5.0,WSW,3.5,-,N/A,,Clear,240,2013-01-26 09:55:00
5:15 AM,21.7,20.5,95,30.09,5.0,WSW,3.5,-,N/A,,Clear,250,2013-01-26 10:15:00
5:35 AM,21.9,20.7,95,30.09,5.0,Calm,Calm,-,N/A,,Clear,0,2013-01-26 10:35:00
5:55 AM,22.1,20.8,95,30.11,5.0,Calm,Calm,-,N/A,,Clear,0,2013-01-26 10:55:00
6:15 AM,21.6,19.9,93,30.12,5.0,Calm,Calm,-,N/A,,Clear,0,2013-01-26 11:15:00
6:35 AM,21.7,20.7,96,30.12,5.0,Calm,Calm,-,N/A,,Clear,0,2013-01-26 11:35:00
6:55 AM,20.3,19.0,95,30.14,5.0,Calm,Calm,-,N/A,,Clear,0,2013-01-26 11:55:00
7:15 AM,19.0,17.6,94,30.15,5.0,Calm,Calm,-,N/A,,Clear,0,2013-01-26 12:15:00
7:35 AM,18.5,16.9,93,30.16,5.0,Calm,Calm,-,N/A,,Clear,0,2013-01-26 12:35:00
7:55 AM,20.1,18.7,94,30.17,4.0,Calm,Calm,-,N/A,,Clear,0,2013-01-26 12:55:00
8:15 AM,22.8,21.6,95,30.18,4.0,Calm,Calm,-,N/A,,Clear,0,2013-01-26 13:15:00
8:35 AM,23.2,21.9,95,30.19,4.0,Calm,Calm,-,N/A,,Clear,0,2013-01-26 13:35:00
8:55 AM,24.8,23.5,95,30.20,3.0,Calm,Calm,-,N/A,,Clear,0,2013-01-26 13:55:00
9:15 AM,26.1,24.8,95,30.21,3.0,Calm,Calm,-,N/A,,Clear,0,2013-01-26 14:15:00
9:35 AM,27.9,26.6,95,30.21,3.0,Calm,Calm,-,N/A,,Clear,0,2013-01-26 14:35:00
9:55 AM,28.6,27.0,94,30.23,5.0,Calm,Calm,-,N/A,,Clear,0,2013-01-26 14:55:00
10:15 AM,30.7,28.9,93,30.24,5.0,Calm,Calm,-,N/A,,Clear,0,2013-01-26 15:15:00
10:35 AM,32.0,29.7,91,30.24,10.0,Calm,Calm,-,N/A,,Clear,0,2013-01-26 15:35:00
10:55 AM,32.0,30.0,92,30.24,7.0,Calm,Calm,-,N/A,,Clear,0,2013-01-26 15:55:00
11:15 AM,33.8,30.9,89,30.24,10.0,Calm,Calm,-,N/A,,Clear,0,2013-01-26 16:15:00
11:35 AM,35.1,29.5,80,30.24,10.0,Calm,Calm,-,N/A,,Clear,0,2013-01-26 16:35:00
11:55 AM,36.0,29.1,76,30.24,10.0,Calm,Calm,-,N/A,,Clear,0,2013-01-26 16:55:00
12:15 PM,36.5,28.0,71,30.22,10.0,Calm,Calm,-,N/A,,Clear,0,2013-01-26 17:15:00
12:35 PM,37.0,27.1,67,30.21,10.0,Calm,Calm,-,N/A,,Clear,0,2013-01-26 17:35:00
12:55 PM,37.6,27.7,67,30.21,10.0,Calm,Calm,-,N/A,,Clear,0,2013-01-26 17:55:00
1:15 PM,37.8,27.0,65,30.20,10.0,Calm,Calm,-,N/A,,Clear,0,2013-01-26 18:15:00
1:35 PM,37.6,30.0,74,30.20,10.0,Calm,Calm,-,N/A,,Clear,0,2013-01-26 18:35:00
1:55 PM,37.2,31.8,81,30.20,10.0,Calm,Calm,-,N/A,,Clear,0,2013-01-26 18:55:00
2:15 PM,37.4,31.1,78,30.20,10.0,South,3.5,-,N/A,,Clear,180,2013-01-26 19:15:00
2:35 PM,37.4,30.0,75,30.20,10.0,Calm,Calm,-,N/A,,Clear,0,2013-01-26 19:35:00
2:55 PM,37.6,29.3,72,30.19,10.0,Calm,Calm,-,N/A,,Clear,0,2013-01-26 19:55:00
3:15 PM,37.9,29.3,71,30.19,10.0,Calm,Calm,-,N/A,,Clear,0,2013-01-26 20:15:00
3:35 PM,37.9,28.2,68,30.20,10.0,Calm,Calm,-,N/A,,Clear,0,2013-01-26 20:35:00
3:55 PM,37.9,28.4,69,30.21,10.0,Calm,Calm,-,N/A,,Clear,0,2013-01-26 20:55:00
4:15 PM,38.3,28.2,67,30.21,10.0,Calm,Calm,-,N/A,,Clear,0,2013-01-26 21:15:00
4:35 PM,37.9,28.2,68,30.22,10.0,Calm,Calm,-,N/A,,Clear,0,2013-01-26 21:35:00
4:55 PM,37.2,29.3,73,30.23,10.0,Calm,Calm,-,N/A,,Clear,0,2013-01-26 21:55:00
5:15 PM,36.1,29.3,76,30.24,10.0,Calm,Calm,-,N/A,,Clear,0,2013-01-26 22:15:00
5:35 PM,33.4,29.3,85,30.25,10.0,Calm,Calm,-,N/A,,Clear,0,2013-01-26 22:35:00
5:55 PM,34.3,29.1,81,30.26,10.0,Calm,Calm,-,N/A,,Clear,0,2013-01-26 22:55:00
6:15 PM,31.1,28.0,88,30.26,10.0,Calm,Calm,-,N/A,,Clear,0,2013-01-26 23:15:00
6:35 PM,30.9,27.9,88,30.27,10.0,Calm,Calm,-,N/A,,Clear,0,2013-01-26 23:35:00
6:55 PM,30.4,28.0,91,30.27,10.0,Calm,Calm,-,N/A,,Clear,0,2013-01-26 23:55:00
7:15 PM,30.2,27.9,91,30.28,10.0,Calm,Calm,-,N/A,,Clear,0,2013-01-27 00:15:00
7:35 PM,28.9,27.0,92,30.30,10.0,Calm,Calm,-,N/A,,Clear,0,2013-01-27 00:35:00
7:55 PM,28.9,27.3,94,30.31,7.0,Calm,Calm,-,N/A,,Clear,0,2013-01-27 00:55:00
8:15 PM,27.7,26.4,95,30.31,10.0,Calm,Calm,-,N/A,,Clear,0,2013-01-27 01:15:00
8:35 PM,27.0,25.7,95,30.32,10.0,Calm,Calm,-,N/A,,Clear,0,2013-01-27 01:35:00
8:55 PM,28.6,26.8,93,30.33,10.0,Calm,Calm,-,N/A,,Clear,0,2013-01-27 01:55:00
9:15 PM,28.6,24.4,84,30.34,10.0,Calm,Calm,-,N/A,,Clear,0,2013-01-27 02:15:00
9:35 PM,27.7,23.7,85,30.35,10.0,Calm,Calm,-,N/A,,Clear,0,2013-01-27 02:35:00
9:55 PM,27.5,23.9,86,30.36,10.0,Calm,Calm,-,N/A,,Clear,0,2013-01-27 02:55:00
10:15 PM,24.3,22.5,93,30.37,10.0,Calm,Calm,-,N/A,,Clear,0,2013-01-27 03:15:00
10:35 PM,27.5,23.5,85,30.37,10.0,NE,3.5,-,N/A,,Clear,40,2013-01-27 03:35:00
10:55 PM,29.1,23.0,78,30.38,10.0,North,3.5,-,N/A,,Clear,10,2013-01-27 03:55:00
11:15 PM,29.5,22.6,76,30.39,10.0,NNE,3.5,-,N/A,,Clear,20,2013-01-27 04:15:00
11:35 PM,29.5,22.1,74,30.39,10.0,NNE,3.5,-,N/A,,Clear,30,2013-01-27 04:35:00
11:55 PM,30.0,22.1,72,30.40,10.0,North,3.5,-,N/A,,Clear,360,2013-01-27 04:55:00